Regional Weather Roundup
Issued by NWS

Home | Current Version | Previous Version | Text Only | Print | Product List | Glossary Off
Versions: 1 2 3 4 5 6 7 8 9 10 11 12 13 14 15 16 17 18 19 20 21 22 23 24 25 26 27 28 29 30 31 32 33 34 35 36 37 38 39 40 41 42 43 44 45 46 47 48 49 50

000
ASUS43 KFSD 032010
RWRSD

WEATHER ROUNDUP FOR SOUTH DAKOTA
NATIONAL WEATHER SERVICE SIOUX FALLS SD
300 PM CDT THU SEP 03 2015

NOTE: "FAIR" INDICATES FEW OR NO CLOUDS BELOW 12,000 FEET WITH NO
SIGNIFICANT WEATHER AND/OR OBSTRUCTIONS TO VISIBILITY.


SDZ001>005-009-010-012>017-032100-
NORTHWEST AND NORTH CENTRAL SOUTH DAKOTA

CITY           SKY/WX    TMP DP  RH WIND       PRES   REMARKS
BUFFALO          N/A     84  48  28 NW14      29.72R
MOBRIDGE       MOSUNNY   98  62  30 S17G28    29.67F HX  99
$$

SDZ012>016-024>037-041>051-057-063-072>074-032100-
SOUTHWEST AND SOUTH CENTRAL SOUTH DAKOTA

CITY           SKY/WX    TMP DP  RH WIND       PRES   REMARKS
RAPID CTY ARPT MOSUNNY   96  49  20 S13       29.75F
PIERRE         MOSUNNY  100  57  23 SE21G29   29.69F HX  99
CUSTER         PTSUNNY   86  35  16 CALM      29.96F
ELLSWORTH AFB  MOSUNNY   97  46  17 SE13      29.75F
PHILIP         MOSUNNY   99  56  23 S17       29.70F HX  97
PINE RIDGE     PTSUNNY   92  52  25 S3        29.80F
WINNER         FAIR      99  46  16 SE13G22   29.75F HX  95
$$

SDZ004>011-016>023-039-040-032100-
NORTHEAST SOUTH DAKOTA

CITY           SKY/WX    TMP DP  RH WIND       PRES   REMARKS
ABERDEEN       SUNNY     92  72  51 S13       29.74F HX  99
WATERTOWN      SUNNY     90  70  51 SE14      29.81F HX  95
BROOKINGS      SUNNY     88  72  58 SE15G22   29.83F
SISSETON         N/A     91  72  53 S12       29.77F HX  98
$$

SDZ017-020-022-023-036>040-048>070-032100-
SOUTHEAST SOUTH DAKOTA

CITY           SKY/WX    TMP DP  RH WIND       PRES   REMARKS
SIOUX FALLS    MOSUNNY   86  71  60 SE15G22   29.81F
HURON          SUNNY     91  70  49 SE13      29.75F HX  96
CHAMBERLAIN    SUNNY     91  70  50 SE9       29.75F HX  95
MITCHELL       SUNNY     91  72  53 SE14G21   29.76F HX  98
YANKTON        SUNNY     88  70  55 SE13      29.77F
$$

ABBREVIATIONS USED IN REMARKS
   TC - TEMPERATURE IN CELSIUS
  WCI - WIND CHILL INDEX
   HX - HEAT INDEX
  VSB - VISIBILITY



USA.gov is the U.S. government's official web portal to all federal, state and local government web resources and services.